Regional Weather Roundup
Issued by NWS

Home | Current Version | Previous Version | Text Only | Print | Product List | Glossary Off
Versions: 1 2 3 4 5 6 7 8 9 10 11 12 13 14 15 16 17 18 19 20 21 22 23 24 25 26 27 28 29 30 31 32 33 34 35 36 37 38 39 40 41 42 43 44 45 46 47 48 49 50

000
ASUS43 KMKX 231600
RWRWI

WISCONSIN REGIONAL WEATHER ROUNDUP
NATIONAL WEATHER SERVICE MILWAUKEE/SULLIVAN WI
1100 AM CDT TUE SEP 23 2014

NOTE: "FAIR" INDICATES FEW OR NO CLOUDS BELOW 12,000 FEET WITH NO
SIGNIFICANT WEATHER AND/OR OBSTRUCTIONS TO VISIBILITY.

WIZ001-002-006>008-014>016-023>028-231700-
NORTHWEST WISCONSIN

CITY           SKY/WX    TMP DP  RH WIND       PRES   REMARKS
SUPERIOR ARPT  SUNNY     63  54  73 SW5       30.22S
ASHLAND        SUNNY     68  54  60 VRB6      30.24S
HAYWARD        SUNNY     66  53  63 S6        30.26R
SIREN          SUNNY     66  54  64 SW5       30.24S
CUMBERLAND     SUNNY     63  52  67 S5        30.26S
RICE LAKE      SUNNY     63  53  70 S3        30.28S
CHETEK         SUNNY     62  55  77 NE3       30.27S
LADYSMITH      SUNNY     63  54  71 SW3       30.29S
EAU CLAIRE     NOT AVBL
MENOMONIE      SUNNY     63  53  68 CALM      30.27S
NEW RICHMOND   SUNNY     65  52  62 S5        30.25R
OSCEOLA        SUNNY     66  54  63 S7        30.27R
$$

WIZ003>005-009-010-017-018-231700-
NORTH CENTRAL WISCONSIN

CITY           SKY/WX    TMP DP  RH WIND       PRES   REMARKS
MANITOWISH WTR SUNNY     64  53  68 SW3       30.27R
ARBOR VITAE    SUNNY     64  52  64 SW3       30.27S
WOODRUFF       SUNNY     64  52  64 SW3       30.27S
RHINELANDER    SUNNY     66  53  63 SW8       30.29R
EAGLE RIVER    SUNNY     65  50  58 SW7       30.27S
LAND O LAKES   SUNNY     66  52  59 SW5       30.28R
PHILLIPS       SUNNY     64  53  66 SW3       30.27S
TOMAHAWK       SUNNY     64  52  65 CALM      30.29S
MEDFORD        SUNNY     64  51  62 SW3       30.29S
MERRILL        SUNNY     62  53  71 CALM      30.29R
$$

WIZ029-030-035-036-043>047-231700-
CENTRAL WISCONSIN

CITY           SKY/WX    TMP DP  RH WIND       PRES   REMARKS
WAUSAU         SUNNY     65  52  62 S6        30.29R
MOSINEE        SUNNY     64  54  68 SW3       30.31
MARSHFIELD     SUNNY     66  54  65 SW7       30.30R
STEVENS POINT  SUNNY     63  50  62 W3        30.31R
WAUPACA        SUNNY     66  56  68 CALM      30.30S
WAUTOMA        NOT AVBL
WISC RAPIDS    SUNNY     66  52  60 W7        30.32R
CAMP DOUGLAS   NOT AVBL
$$

WIZ011>013-019>022-031-037>040-048>050-231700-
NORTHEAST WISCONSIN

CITY           SKY/WX    TMP DP  RH WIND       PRES   REMARKS
ANTIGO         SUNNY     65  53  63 W3        30.29S
SHAWANO        SUNNY     68  55  61 W7        30.29S
OCONTO         SUNNY     66  55  67 W6        30.27S
STURGEON BAY   SUNNY     66  54  63 W9        30.28F
GREEN BAY      SUNNY     68  56  65 SW6       30.29S
MANITOWOC      NOT AVBL
APPLETON       NOT AVBL
CLINTONVILLE   SUNNY     66  52  59 W5        30.29S
OSHKOSH        SUNNY     67  53  61 SW6       30.30S
$$

WIZ032>034-041-042-053>061-231700-
SOUTHWEST WISCONSIN

CITY           SKY/WX    TMP DP  RH WIND       PRES   REMARKS
LA CROSSE      SUNNY    N/A N/A N/A SE6       30.30S
SPARTA         SUNNY     64  52  65 CALM      30.31S
VIROQUA        SUNNY     65  52  62 S7        30.32S
BOSCOBEL       SUNNY     64  53  67 CALM      30.32F
PRAIRIE DU CHI SUNNY     62  50  66 S5        30.31F
PLATTEVILLE    SUNNY     66  49  55 SW8       30.34S
$$

WIZ056-057-062-063-064-067-068-231700-
SOUTH CENTRAL WISCONSIN

CITY           SKY/WX    TMP DP  RH WIND       PRES   REMARKS
REEDSBURG      SUNNY     65  54  66 W7        30.32R
BARABOO/DELLS  SUNNY     66  50  56 SW6       30.32R
LONE ROCK      NOT AVBL
MINERAL POINT  SUNNY     66  50  55 SW5       30.33S
MADISON        MOSUNNY   67  51  56 VRB3      30.33R
MIDDLETON      SUNNY     69  49  48 W6        30.33S
WATERTOWN      SUNNY     65  52  62 CALM      30.32S
MONROE         SUNNY     64  48  55 SW10      30.33S
JANESVILLE     SUNNY     66  48  52 SW12      30.33S
$$

WIZ051-052-058>065-066-070>072-231700-
SOUTHEAST WISCONSIN

CITY           SKY/WX    TMP DP  RH WIND       PRES   REMARKS
MILWAUKEE      MOSUNNY   69  48  47 W9        30.32S
WAUKESHA       SUNNY     64  52  63 SW3       30.33S
MILWAUKEE/TIMM SUNNY     66  48  52 W6        30.33S
RACINE         SUNNY     68  49  50 VRB6      30.34S
BURLINGTON     SUNNY     66  46  48 W8        30.34R
KENOSHA        SUNNY     67  50  54 W9        30.34R
FOND DU LAC    SUNNY     67  53  61 W5        30.31S
SHEBOYGAN      SUNNY     70  52  52 VRB3      30.30S
WEST BEND      SUNNY     66  48  52 SW6       30.31S
JUNEAU         SUNNY     62  52  70 S3        30.33S
$$

LSZ147-162-231700-
LAKE SUPERIOR

STATION/POSITION TIME  TEMP    WIND        PRES    WAVE
                       AIR SEA DIR/SP/G            HT/PER
                 (UTC) (F)     (DEG/KT/KT) (MB)    (FT/S)
W MID LAKE BUOY  1450   51 48  210/  6/  6 1023.2R   1/ 4
DEVILS ISLAND    1500   58     240/  8/  9 1023.5R
PORT WING        1500   63     190/  5/  7 1023.4R
SAXON HARBOR     1500   66     200/  4/  6 1023.7R
$$

LMZ867-665-643>646-231700-
LAKE MICHIGAN

STATION/POSITION TIME  TEMP    WIND        PRES    WAVE
                       AIR SEA DIR/SP/G            HT/PER
                 (UTC) (F)     (DEG/KT/KT) (MB)    (FT/S)
CHAMBERS ISLAND  1500   59     190/  6/  9 1025.1R
S GREEN BAY BUOY 1500   57                 1026.1R
N MID LAKE BUOY  1450   57 57  230/  8/ 10 1024.6R   2/ 4
NORTHPORT PIER   1500   65     240/  4/ 11 1024.4R
SISTER BAY       1512          280/  8/  9   N/A
ALGOMA LAKESHORE 1340          330/  8/ 11   N/A
KEWAUNEE LAKESHO 1500   65     300/  7/ 10 1024.3R
SHEBOYGAN LAKESH 1500   61 53  170/  4/  5 1026.4R
PORT WASHINGTON  1500   63     100/  3/  3 1026.8R
ATWATER BUOY     1500   62     270/  4/  4 1027.6R
S MID LAKE BUOY  1450   61 61  230/ 10/ 12 1027.2R   2/ 3
KENOSHA   LAKESH 1500   63     250/ 10/ 11 1026.8S
$$

TC  - TEMPERATURE IN CELSIUS
VSB - VISIBILITY IN STATUTE MILES
WCI - WIND CHILL INDEX
HX  - HEAT INDEX




USA.gov is the U.S. government's official web portal to all federal, state and local government web resources and services.